Location: ??i Ch�n
(16.3782°N, 107.4927°E)
Time: 21:11:28
(UTC+00:00)

Daily predictions for brighter satellites

Satellite Brightness Start Highest point End
(mag) Time Altitude Azimuth Time Altitude Azimuth Time Altitude Azimuth
USA 186 3.5 12:04:34 12° ESE 12:06:26 18° ENE 12:08:46 10° NNE
GPS 2-18 Rocket1 3.1 12:05:20 10° W 12:08:58 75° NNW 12:12:37 10° ENE
Cosmos 1898 Rocket 3.4 12:05:19 10° N 12:10:30 77° ENE 12:15:39 10° SSE
Cosmos 1606 Rocket 3.8 12:06:43 10° N 12:11:03 50° E 12:15:22 10° SSE
ATLAS 5 CENTAUR R/B 1.2 12:10:21 10° SSW 12:14:20 75° ESE 12:18:21 10° NNE
FREGAT/IRIS 4.2 12:15:22 15° E 12:15:31 15° ENE 12:17:08 10° NE
Cosmos 1626 2.5 12:11:53 10° SSW 12:15:32 66° W 12:19:11 10° N
Ariane Rocket 3.8 12:11:26 12° SE 12:15:33 33° ENE 12:20:04 10° NNE
CZ-2C R/B 2.8 12:12:29 10° NNE 12:17:34 48° E 12:22:33 10° S
Intelsat 5-1 Rocket 2.5 12:17:31 10° WNW 12:23:18 45° SSW 12:25:06 21° SE
Cosmos 990 Rocket 4.3 12:19:24 10° NNW 12:24:29 67° WSW 12:29:34 10° S
GEOS 3 Rocket 4.0 12:19:40 10° NE 12:24:42 41° ESE 12:29:40 10° S
USA 229 DEB 4.3 12:21:06 10° N 12:28:18 47° ENE 12:33:28 20° SE
USA 229 4.4 12:21:11 10° N 12:28:24 46° ENE 12:33:32 20° SE
CSL-04 Rocket 4.4 12:23:10 10° S 12:28:33 55° WSW 12:33:55 10° NNW
OAO 3 Copernicus 4.2 12:25:06 10° SW 12:30:10 79° SE 12:35:14 10° ENE
NOSS 3-3 (A) 4.4 12:25:46 10° S 12:30:33 30° ESE 12:35:29 10° NE
NOSS 3-3 (C) 4.4 12:25:54 10° S 12:30:40 30° ESE 12:35:35 10° NE
DMSP B5D2-2 4.0 12:25:47 10° NNE 12:30:58 71° ESE 12:36:08 10° S
Cosmos 1602 Rocket 4.2 12:29:51 21° SE 12:32:08 34° E 12:36:07 10° NNE
H-2A R/B 2.1 12:28:21 10° SSE 12:33:44 90° ENE 12:39:11 10° NNW
Cosmos 1356 Rocket 4.1 12:30:44 10° NNE 12:34:31 33° E 12:35:37 28° ESE
Palapa B4 Rocket 4.5 12:25:02 10° WSW 12:34:54 59° SSE 12:39:16 20° E
Hubble Space Telescope 0.7 12:31:21 10° SW 12:35:26 67° SSE 12:38:02 21° ENE
Cosmos 1726 Rocket 3.6 12:37:35 10° N 12:42:02 80° W 12:45:52 14° S
Ariane 44P Rocket 4.3 12:40:47 10° WSW 12:44:38 15° SSW 12:45:41 14° S
Cosmos 2322 Rocket 4.0 12:45:46 10° SW 12:50:43 32° WNW 12:55:41 10° N
Meteor 1-21 Rocket 4.4 12:46:56 16° SSE 12:51:27 56° E 12:57:11 10° NNE
GPS 2-15 Rocket1 3.4 12:47:22 10° WNW 12:52:17 67° N 12:54:27 33° E
Delta 142 3.6 12:47:52 10° WNW 12:52:45 65° SSW 12:53:56 44° SE
IRS-1A Rocket 4.1 12:51:14 21° SSE 12:55:03 89° E 13:00:33 10° NNW
Intelsat 5-2 Rocket 2.4 12:53:19 10° WNW 12:55:34 52° NNW 12:55:34 52° NNW
Cosmos 1937 Rocket 4.4 12:51:26 10° NNW 12:56:31 47° WSW 13:00:58 13° S
CZ-2C R/B 4.1 12:52:32 10° N 12:57:16 70° WNW 13:01:58 10° SSW
EXPRESS MD2 4.1 12:56:11 10° NW 13:00:13 79° NE 13:03:02 36° SE
Resurs 01 Rocket 3.3 13:01:21 19° NE 13:01:21 19° NE 13:03:33 10° NNE
MOS 1 4.2 12:59:25 28° SSE 13:02:34 87° ENE 13:08:14 10° NNW
Cosmos 1745 Rocket 3.9 13:01:25 27° SSE 13:04:46 64° E 13:10:53 10° NNE
Cosmos 783 Rocket 4.4 12:59:57 10° S 13:05:13 82° ESE 13:10:28 10° NNE
SL-08 RB Rocket 3.8 13:03:41 33° S 13:05:35 70° W 13:10:02 10° NNW
ARIANE 5 R/B 4.3 12:56:26 10° WSW 13:07:05 21° SSW 13:08:42 19° S
SL-08 ROCKET BODY 4.2 13:07:43 31° S 13:10:37 73° E 13:16:33 10° N
COSMOS 2428 3.6 13:14:22 32° ENE 13:14:22 32° ENE 13:17:53 10° NE
Cosmos 2322 3.6 13:09:57 10° SSW 13:15:40 88° E 13:21:24 10° NNE
Cosmos 372 Rocket 4.0 13:12:18 10° NNW 13:17:32 76° WSW 13:18:54 50° S
Cosmos 1758 Rocket 4.2 13:18:49 44° NE 13:18:49 44° NE 13:22:04 10° NNE
Cosmos 2058 Rocket 4.2 13:15:37 10° NNW 13:19:50 42° W 13:21:41 27° SW
USA 215 3.6 13:16:09 10° NNE 13:22:34 63° NW 13:28:59 10° SW
Cosmos 1300 4.1 13:21:46 10° NNW 13:25:13 33° W 13:25:48 32° WSW
Cosmos 2219 Rocket 2.2 13:26:20 60° ENE 13:26:20 60° ENE 13:31:12 10° NNE
Cosmos 2333 4.3 13:21:59 10° SSW 13:27:33 73° WNW 13:33:10 10° NNE
Cosmos 2360 Rocket 4.0 13:23:15 10° SW 13:28:06 30° WNW 13:33:00 10° N
Centaur Rocket 4.3 13:13:16 10° W 13:28:51 58° SSW 13:29:57 52° SSE
Cosmos 773 Rocket 3.9 13:29:05 81° S 13:29:22 88° ESE 13:34:40 10° NNE
SJ-6B 4.3 13:30:07 29° WSW 13:30:38 30° W 13:34:08 10° NW
Resurs 1-3 4.1 13:34:27 58° NNW 13:34:27 58° NNW 13:38:01 10° NNW
Cosmos 2263 Rocket 2.3 13:31:26 10° NNW 13:36:55 64° WSW 13:37:33 59° SW
Cosmos 2333 Rocket 2.1 13:37:38 69° SW 13:38:20 82° WNW 13:44:01 10° NNE
Atlas Centaur 2 4.3 13:35:48 10° NW 13:40:15 22° N 13:44:24 13° NE
CZ-3A R/B 3.3 13:26:42 10° SW 13:42:21 48° S 13:42:21 48° S
BREEZE M DEB (TANK) 4.2 13:44:19 27° WNW 13:44:59 30° NW 13:50:09 10° NNE
ATLAS CENTAUR R/B 3.3 13:44:14 10° NNW 13:46:16 40° NNW 13:46:16 40° NNW
Cosmos 1709 Rocket 3.9 13:50:14 75° NNE 13:50:14 75° NNE 13:56:00 10° N
Meteor 2-1 Rocket 4.3 13:45:11 10° N 13:50:48 77° WNW 13:50:48 77° WNW
Nadezhda 1 Rocket 4.2 14:01:46 10° N 14:07:27 66° NW 14:07:27 66° NW
Hubble Space Telescope 3.8 14:13:05 10° W 14:13:26 12° WNW 14:13:26 12° WNW
Cosmos 1844 Rocket 4.5 14:12:43 10° N 14:14:57 23° NNE 14:14:57 23° NNE
H-2A ROCKET BODY 4.2 14:11:52 10° NW 14:18:03 57° NNE 14:53:01 10° ESE
Milstar 3 Cent rocket 4.3 14:19:32 10° W 14:21:13 19° WSW 14:21:13 19° WSW
SL-16 R/B 4.5 18:47:36 22° N 18:47:36 22° N 18:49:37 10° N
CZ-4C R/B 3.9 18:55:44 10° NNW 19:00:34 42° NNW 19:00:34 42° NNW
IDEFIX/ARIANE 42P 4.3 19:20:05 10° NNE 19:22:59 29° ENE 19:22:59 29° ENE
Centaur AC-72 3.2 19:25:51 77° ESE 19:25:51 77° ESE 19:31:07 10° E
Cosmos 2082 Rocket 3.5 19:30:26 36° ENE 19:30:26 36° ENE 19:34:34 10° NE
ARIANE 5 R/B 4.4 19:26:19 10° N 19:28:24 25° N 19:28:24 25° N
CZ-3B R/B 3.5 19:38:19 78° SSW 19:38:50 82° SSE 19:44:16 10° ENE
Meteor 1-11 Rocket 4.5 19:47:49 46° N 19:47:49 46° N 19:51:37 10° N
H-2A R/B (2) 2.9 19:48:23 44° NNE 19:48:23 44° NNE 19:50:35 10° NE
Cosmos 1833 Rocket 3.6 19:51:04 40° N 19:51:04 40° N 19:54:40 10° N
NATO 3D Rocket 4.5 19:51:14 55° NW 19:52:12 60° N 19:58:07 10° ENE
IUS-26 SRM-1 4.3 19:56:52 46° N 19:56:57 46° N 20:09:06 10° ENE
Cosmos 1816 Rocket 4.3 20:05:59 10° N 20:12:20 79° W 20:12:49 74° SW
Cosmos 2233 Rocket 4.4 20:18:41 44° WNW 20:18:41 44° WNW 20:23:44 10° NNW
Meteor 2-11 Rocket 4.3 20:17:30 67° SSW 20:18:22 85° W 20:24:28 10° N
OAO 1 4.4 20:24:02 69° WNW 20:24:26 73° NNW 20:29:56 10° NE
PAYLOAD A 4.3 20:23:59 10° NNE 20:29:20 72° ESE 20:31:18 40° S
GPS 2-14 Rocket1 3.1 20:32:30 58° N 20:32:30 58° N 20:36:32 10° ENE
CZ-2C R/B 2.6 20:29:33 10° NNE 20:34:15 63° E 20:35:46 40° SSE
Cosmos 2221 Rocket 4.4 20:32:12 10° NNW 20:35:06 36° NW 20:35:06 36° NW
DELTA 2 R/B (1) 4.0 20:32:02 10° NW 20:37:35 61° NE 20:43:07 10° ESE
Cosmos 1656 4.2 20:32:39 10° N 20:37:58 57° ENE 20:43:20 10° SSE
Cosmos 1743 3.1 20:41:41 49° NNW 20:41:41 49° NNW 20:44:40 10° N
NOSS 3-2 (A) 3.7 20:42:11 26° S 20:45:01 52° ESE 20:50:28 10° NE
Helios 1B 4.4 20:45:12 59° SSW 20:45:47 67° WSW 20:50:04 10° NNW
MSX 4.3 20:41:12 10° N 20:46:29 40° WNW 20:47:23 37° W
Ariane H10-3 4.3 20:45:05 18° S 20:46:53 20° SSE 20:55:56 10° ESE
Cosmos 220 Rocket 3.8 20:44:19 10° NNW 20:48:33 87° WSW 20:51:06 23° SSE
Meteor 1-23 Rocket 4.3 20:46:06 10° N 20:51:51 82° E 20:57:38 10° S
H-2A R/B 2.1 20:50:58 42° SSW 20:52:15 60° WSW 20:56:39 10° NNW
deb Chang Zheng 4 3.5 20:49:21 10° N 20:53:32 60° WNW 20:54:28 47° SW
Cosmos 1850 Rocket 4.2 20:52:25 40° SW 20:53:57 55° WNW 20:59:10 10° N
Palapa B4 Rocket 4.2 20:58:00 30° SSW 20:58:23 30° SSW 21:03:49 10° SE
ALOS 3.9 20:55:14 10° NE 20:59:25 32° E 21:03:34 10° SSE
Cosmos 1484 Rocket 4.3 20:56:17 10° NNE 20:59:47 34° E 21:03:14 10° SSE
ERS-2 3.0 21:01:01 32° WNW 21:01:01 32° WNW 21:03:33 10° NNW
Delta 198 3.9 20:56:40 18° WNW 21:00:17 65° NNE 21:04:30 10° E
CZ-3A R/B 2.5 20:59:13 20° WNW 21:01:40 66° NNE 21:13:20 10° ESE
CZ-4C R/B 4.3 21:04:31 25° WNW 21:04:31 25° WNW 21:06:20 10° NW
Hubble Space Telescope 1.0 21:02:46 42° WSW 21:03:25 47° SSW 21:07:23 10° SE
IDEFIX/ARIANE 42P 4.4 21:01:28 10° NW 21:03:47 14° WNW 21:03:47 14° WNW
Cosmos 1741 Rocket 4.5 21:05:27 30° WSW 21:07:14 40° WNW 21:12:06 10° N
CZ-3 R/B 3.8 20:20:54 10° WNW 21:07:16 87° NNE 21:16:50 10° ESE
ADEOS 3.6 21:07:33 10° N 21:12:41 61° WNW 21:16:35 17° SSW
Cosmos 2082 Rocket 3.8 21:12:19 16° W 21:13:18 16° WNW 21:16:46 10° NNW
Cosmos 1464 Rocket 4.4 21:10:34 20° SSW 21:14:39 45° W 21:20:41 10° NNW
SL-27 R/B 2.5 21:12:16 19° S 21:14:43 77° ESE 21:18:16 10° NNE
Landsat 5 4.1 21:14:19 27° SW 21:15:31 32° W 21:19:09 10° NW
OAO 3 Copernicus 4.2 21:12:13 10° WNW 21:17:15 83° SW 21:22:16 10° SE
USA 238 DEB 3.6 21:13:54 18° SSW 21:19:01 76° WNW 21:25:41 10° NNE
USA 238 3.6 21:13:59 17° SSW 21:19:07 77° WNW 21:25:46 10° NNE
Cosmos 1867 3.6 21:15:17 14° SSW 21:20:00 79° ESE 21:25:25 10° NNE
SWIFT 3.0 21:16:41 14° WNW 21:20:13 51° N 21:24:22 10° E
Cosmos 2034 Rocket 4.0 21:14:32 10° SSW 21:20:34 60° W 21:26:36 10° N
GPS 2-12 Rocket1 2.9 21:19:55 15° WNW 21:23:35 89° S 21:28:02 10° ESE
CZ-4B R/B 3.8 21:19:31 10° NNE 21:23:38 90° ESE 21:27:33 10° SSW
Sich 1 Rocket 3.6 21:20:50 10° S 21:25:23 72° W 21:29:56 10° N
Cosmos 1378 Rocket 4.0 21:22:59 10° NNW 21:27:06 40° W 21:31:15 10° SSW
Cosmos 1697 Rocket 2.6 21:25:18 10° NNW 21:30:54 84° WSW 21:36:30 10° SSE
METEOR-M 4.3 21:25:56 10° NNE 21:31:15 74° ESE 21:36:33 10° S
H-10 deb 3.8 21:30:34 14° SW 21:33:31 31° SSE 21:45:18 10° E
Cosmos 1242 Rocket 2.4 21:31:35 10° NNW 21:34:58 58° W 21:38:23 10° S
Cosmos 1300 Rocket 3.8 21:30:55 10° S 21:35:20 73° E 21:39:44 10° N
DELTA 2 R/B(2) 4.2 21:33:07 10° NW 21:37:28 71° SW 21:40:14 10° SE
CZ-4B R/B 1.7 21:38:19 10° S 21:41:30 44° W 21:44:47 10° NNW
Meteor 1-12 Rocket 4.3 21:37:06 10° S 21:42:43 87° E 21:48:24 10° N
Cosmos 192 4.4 21:41:31 10° NNW 21:46:18 58° WSW 21:51:06 10° S
Cosmos 921 Rocket 3.4 21:42:32 10° NNW 21:46:35 39° W 21:50:34 10° SSW
Cosmos 1975 4.5 21:44:41 12° WSW 21:46:48 17° W 21:49:27 10° NW
Okean 2 3.3 21:44:33 10° NNW 21:48:34 62° W 21:52:35 10° S
Okean O Rocket 4.4 21:46:54 10° ENE 21:49:35 16° E 21:52:16 10° SE
CENTAUR R/B 2.2 21:50:15 10° SSW 21:55:31 71° WNW 22:01:28 10° NNE
NATO 3D Rocket 4.2 21:49:50 10° WNW 21:56:05 57° N 22:00:56 10° E
H-2A R/B 2.6 21:52:18 10° NNE 21:56:35 84° ESE 22:00:40 10° S
Ariane H10+ 4.4 13:42:07 10° WSW 22:48:59 44° SSW 22:54:41 10° SE
